• In United Kingdom
  • List of Countries
  • For 7 days
  • Water Temperature
  • Satellite Maps
  • Weather Map
  • Weather Widgets
  • user-avatar
    Login

    Hourly Weather Shkoder

    Today, 17 December, Sunday

    Time Temperature Precipitation Wind Pressure Humidity
    00:00 +8°C° 0.4 mm 1 mps 734 mmHg 86%
    01:00 +8°C° 0 mm 1 mps 734 mmHg 88%
    02:00 +8°C° 0.5 mm 1 mps 734 mmHg 88%
    03:00 +8°C° 0.5 mm 1 mps 734 mmHg 89%
    04:00 +7°C° 0.5 mm 1 mps 734 mmHg 89%
    05:00 +7°C° 0.4 mm 1 mps 735 mmHg 89%
    06:00 +7°C° 0.4 mm 1 mps 735 mmHg 90%
    07:00 +7°C° 0.4 mm 1 mps 735 mmHg 90%
    08:00 +6°C° 0.3 mm 2 mps 735 mmHg 88%
    09:00 +7°C° 0.3 mm 2 mps 736 mmHg 86%
    10:00 +7°C° 0.3 mm 2 mps 736 mmHg 83%
    11:00 +8°C° 0.4 mm 2 mps 736 mmHg 82%
    12:00 +8°C° 0.4 mm 2 mps 736 mmHg 80%
    13:00 +8°C° 0.4 mm 2 mps 736 mmHg 79%
    14:00 +7°C° 0.6 mm 2 mps 736 mmHg 81%
    15:00 +7°C° 0.6 mm 2 mps 737 mmHg 84%
    16:00 +6°C° 0.6 mm 2 mps 737 mmHg 86%
    17:00 +6°C° 0.6 mm 2 mps 737 mmHg 87%
    18:00 +5°C° 0.6 mm 2 mps 738 mmHg 87%
    19:00 +4°C° 0.6 mm 3 mps 738 mmHg 87%
    20:00 +3°C° 0.5 mm 3 mps 739 mmHg 86%
    21:00 +3°C° 0.5 mm 4 mps 739 mmHg 86%
    22:00 +3°C° 0.5 mm 4 mps 740 mmHg 85%
    23:00 +1°C° 0.6 mm 4 mps 740 mmHg 84%

    Tomorrow, 18 December, Monday

    Time Temperature Precipitation Wind Pressure Humidity
    00:00 +1°C° 0.6 mm 4 mps 740 mmHg 84%
    01:00 +1°C° 0.6 mm 5 mps 740 mmHg 83%
    02:00 0°C° 1 mm 5 mps 740 mmHg 84%
    03:00 0°C° 1 mm 5 mps 740 mmHg 85%
    04:00 0°C° 1 mm 5 mps 740 mmHg 87%
    05:00 0°C° 0.7 mm 4 mps 740 mmHg 86%
    06:00 0°C° 0.7 mm 4 mps 740 mmHg 86%
    07:00 0°C° 0.7 mm 4 mps 740 mmHg 86%
    08:00 0°C° 0.5 mm 4 mps 741 mmHg 86%
    09:00 0°C° 0.5 mm 4 mps 741 mmHg 86%
    10:00 0°C° 0.5 mm 4 mps 741 mmHg 86%
    11:00 +1°C° 0.4 mm 3 mps 741 mmHg 85%
    12:00 +2°C° 0.4 mm 3 mps 740 mmHg 85%
    13:00 +2°C° 0.4 mm 3 mps 740 mmHg 84%
    14:00 +1°C° 0.3 mm 3 mps 740 mmHg 85%
    15:00 +1°C° 0.3 mm 3 mps 740 mmHg 85%
    16:00 +2°C° 0.3 mm 2 mps 740 mmHg 86%
    17:00 +2°C° 0.2 mm 2 mps 741 mmHg 86%
    18:00 +1°C° 0.2 mm 2 mps 741 mmHg 87%
    19:00 +1°C° 0.2 mm 2 mps 741 mmHg 87%
    20:00 +1°C° 0.1 mm 2 mps 742 mmHg 87%
    21:00 +1°C° 0.1 mm 2 mps 742 mmHg 87%
    22:00 -1°C° 0.1 mm 2 mps 743 mmHg 87%
    23:00 -1°C° 0.1 mm 2 mps 743 mmHg 87%

    Day after tomorrow, 19 December, Tuesday

    Time Temperature Precipitation Wind Pressure Humidity
    00:00 -1°C° 0.1 mm 3 mps 743 mmHg 86%
    01:00 -1°C° 0.1 mm 3 mps 743 mmHg 86%
    02:00 -1°C° 0.1 mm 3 mps 743 mmHg 86%
    03:00 -2°C° 0.1 mm 2 mps 744 mmHg 86%
    04:00 -2°C° 0.1 mm 2 mps 744 mmHg 85%
    05:00 -2°C° 0 mm 3 mps 744 mmHg 85%
    06:00 -2°C° 0 mm 3 mps 745 mmHg 84%
    07:00 -4°C° 0 mm 3 mps 745 mmHg 84%
    08:00 -2°C° 0 mm 3 mps 746 mmHg 81%
    09:00 0°C° 0 mm 3 mps 746 mmHg 77%
    10:00 +1°C° 0 mm 3 mps 747 mmHg 74%
    11:00 +1°C° 0 mm 3 mps 747 mmHg 72%
    12:00 +3°C° 0 mm 2 mps 746 mmHg 71%
    13:00 +3°C° 0 mm 2 mps 746 mmHg 69%
    14:00 +2°C° 0 mm 2 mps 747 mmHg 72%
    15:00 +2°C° 0 mm 2 mps 747 mmHg 75%
    16:00 +1°C° 0 mm 2 mps 747 mmHg 78%
    17:00 -1°C° 0 mm 2 mps 747 mmHg 79%
    18:00 -2°C° 0 mm 2 mps 748 mmHg 81%
    19:00 -2°C° 0 mm 3 mps 748 mmHg 82%
    20:00 -4°C° 0 mm 3 mps 748 mmHg 82%
    21:00 -4°C° 0 mm 3 mps 748 mmHg 82%
    22:00 -4°C° 0 mm 3 mps 749 mmHg 81%
    23:00 -4°C° 0 mm 3 mps 748 mmHg 81%

    20 December, Wednesday

    Time Temperature Precipitation Wind Pressure Humidity
    00:00 -4°C° 0 mm 3 mps 748 mmHg 81%
    01:00 -5°C° 0 mm 3 mps 748 mmHg 81%
    02:00 -4°C° 0 mm 2 mps 748 mmHg 81%
    03:00 -4°C° 0 mm 2 mps 748 mmHg 80%
    04:00 -4°C° 0 mm 2 mps 748 mmHg 80%
    05:00 -4°C° 0 mm 2 mps 748 mmHg 80%
    06:00 -4°C° 0 mm 2 mps 748 mmHg 79%
    07:00 -4°C° 0 mm 2 mps 748 mmHg 79%
    08:00 -2°C° 0 mm 2 mps 748 mmHg 76%
    09:00 -1°C° 0 mm 2 mps 748 mmHg 74%
    10:00 +2°C° 0 mm 2 mps 748 mmHg 71%
    11:00 +2°C° 0 mm 2 mps 748 mmHg 69%
    12:00 +3°C° 0 mm 2 mps 748 mmHg 68%
    13:00 +4°C° 0 mm 2 mps 748 mmHg 67%
    14:00 +3°C° 0 mm 2 mps 748 mmHg 70%
    15:00 +2°C° 0 mm 2 mps 748 mmHg 73%
    16:00 +1°C° 0 mm 2 mps 748 mmHg 76%
    17:00 -1°C° 0 mm 2 mps 749 mmHg 78%
    18:00 -2°C° 0 mm 2 mps 749 mmHg 79%
    19:00 -2°C° 0 mm 3 mps 749 mmHg 80%
    20:00 -4°C° 0 mm 3 mps 750 mmHg 80%
    21:00 -4°C° 0 mm 3 mps 750 mmHg 79%
    22:00 -4°C° 0 mm 3 mps 751 mmHg 78%
    23:00 -4°C° 0 mm 3 mps 751 mmHg 77%

    21 December, Thursday

    Time Temperature Precipitation Wind Pressure Humidity
    00:00 -4°C° 0 mm 3 mps 751 mmHg 77%
    01:00 -4°C° 0 mm 3 mps 751 mmHg 76%
    02:00 -3°C° 0 mm 2 mps 751 mmHg 74%
    03:00 -3°C° 0 mm 2 mps 751 mmHg 73%
    04:00 -4°C° 0 mm 2 mps 750 mmHg 72%
    05:00 -4°C° 0 mm 2 mps 751 mmHg 71%
    06:00 -4°C° 0 mm 2 mps 751 mmHg 69%
    07:00 -4°C° 0 mm 2 mps 751 mmHg 68%
    08:00 -2°C° 0 mm 2 mps 751 mmHg 64%
    09:00 +2°C° 0 mm 1 mps 751 mmHg 61%
    10:00 +4°C° 0 mm 1 mps 751 mmHg 57%
    11:00 +4°C° 0 mm 1 mps 750 mmHg 56%
    12:00 +5°C° 0 mm 1 mps 750 mmHg 56%
    13:00 +6°C° 0 mm 1 mps 749 mmHg 55%
    14:00 +5°C° 0 mm 1 mps 749 mmHg 59%
    15:00 +3°C° 0 mm 1 mps 749 mmHg 64%
    16:00 +2°C° 0 mm 1 mps 749 mmHg 68%
    17:00 +2°C° 0 mm 1 mps 749 mmHg 67%
    18:00 +2°C° 0 mm 1 mps 749 mmHg 66%
    19:00 +1°C° 0 mm 2 mps 750 mmHg 65%
    20:00 +1°C° 0 mm 2 mps 749 mmHg 64%
    21:00 +1°C° 0 mm 2 mps 749 mmHg 63%
    22:00 +2°C° 0 mm 2 mps 749 mmHg 63%
    23:00 +2°C° 0 mm 2 mps 749 mmHg 64%

    22 December, Friday

    Time Temperature Precipitation Wind Pressure Humidity
    00:00 +2°C° 0 mm 2 mps 749 mmHg 66%
    01:00 +2°C° 0 mm 2 mps 749 mmHg 67%
    02:00 +2°C° 0 mm 2 mps 749 mmHg 69%
    03:00 +2°C° 0 mm 2 mps 749 mmHg 70%
    04:00 +2°C° 0 mm 2 mps 748 mmHg 72%
    05:00 +2°C° 0 mm 2 mps 748 mmHg 71%
    06:00 +2°C° 0 mm 2 mps 748 mmHg 69%
    07:00 +2°C° 0 mm 2 mps 748 mmHg 68%
    08:00 +4°C° 0 mm 2 mps 748 mmHg 69%
    09:00 +6°C° 0 mm 2 mps 747 mmHg 69%
    10:00 +8°C° 0 mm 1 mps 747 mmHg 69%
    11:00 +9°C° 0 mm 1 mps 746 mmHg 70%
    12:00 +10°C° 0 mm 1 mps 746 mmHg 71%
    13:00 +10°C° 0 mm 1 mps 745 mmHg 71%
    14:00 +9°C° 0 mm 1 mps 745 mmHg 72%
    15:00 +8°C° 0 mm 1 mps 744 mmHg 73%
    16:00 +7°C° 0 mm 1 mps 744 mmHg 74%
    17:00 +7°C° 0 mm 1 mps 744 mmHg 74%
    18:00 +7°C° 0 mm 1 mps 744 mmHg 75%
    19:00 +7°C° 0 mm 1 mps 744 mmHg 75%
    20:00 +7°C° 0.1 mm 1 mps 744 mmHg 76%
    21:00 +7°C° 0.1 mm 1 mps 743 mmHg 76%
    22:00 +7°C° 0.1 mm 1 mps 743 mmHg 77%
    23:00 +7°C° 0.2 mm 1 mps 743 mmHg 78%
    Show more